Regional Weather Roundup
Issued by NWS Green Bay, WI

Home | Current Version | Previous Version | Text Only | Print | Product List | Glossary On
Versions: 1 2 3 4 5 6 7 8 9 10 11 12 13 14 15 16 17 18 19 20 21 22 23 24 25 26 27 28 29 30 31 32 33 34 35 36 37 38 39 40 41 42 43 44 45 46 47 48 49 50
000
ASUS43 KGRB 280311
RWRGRB

NORTH-CENTRAL AND NORTHEAST WISCONSIN REGIONAL WEATHER ROUNDUP
NATIONAL WEATHER SERVICE GREEN BAY WI
1000 PM CDT SAT MAY 27 2017

WIZ005-009-010>012-018-019-280400-
NORTH CENTRAL WISCONSIN

CITY           SKY/WX    TMP DP  RH WIND       PRES   REMARKS
IRONWOOD       CLOUDY    57  49  74 SW5       29.82F
MANITOWISH WTR PTCLDY    55  53  94 CALM      29.84S
ARBOR VITAE    MOCLDY    62  49  63 SW3       29.84F
EAGLE RIVER    PTCLDY    61  45  54 W5        29.84S
LAND O LAKES   PTCLDY    57  49  74 CALM      29.85F
RHINELANDER    CLOUDY    60  49  66 CALM      29.85F
PHILLIPS       PTCLDY    60  50  69 SW6       29.85S
ANTIGO         CLOUDY    60  51  70 W7        29.85F
TOMAHAWK       CLOUDY    57  51  79 CALM      29.85F
MERRILL        CLOUDY    62  52  71 W3        29.86S
$$

WIZ013-073-280400-
NORTHEAST WISCONSIN

CITY           SKY/WX    TMP DP  RH WIND       PRES   REMARKS
IRON MOUNTAIN  CLOUDY    64  49  57 NE6       29.81S
MARINETTE      NOT AVBL
OCONTO         CLOUDY    62  56  82 CALM      29.80F
$$

WIZ017-030-035>037-045-280400-
CENTRAL WISCONSIN

CITY           SKY/WX    TMP DP  RH WIND       PRES   REMARKS
MEDFORD        CLOUDY    60  50  70 SW3       29.86S
WAUSAU         CLOUDY    63  51  65 W8        29.84S
MOSINEE        CLOUDY    61  52  72 SW5       29.87S
MARSHFIELD     LGT RAIN  59  51  75 W7        29.85F
WISC RAPIDS    LGT RAIN  60  54  80 W5        29.87R
STEVENS POINT  CLOUDY    63  49  58 NW5       29.85F
WAUPACA        CLOUDY    68  52  56 NW5       29.84S
SHAWANO        CLOUDY    67  52  57 W3        29.82F
CLINTONVILLE   CLOUDY    66  50  55 W6        29.82F
WAUTOMA        CLOUDY    63  57  81 W3        29.85R
$$

WIZ038-039-048-051-280400-
FOX VALLEY

CITY           SKY/WX    TMP DP  RH WIND       PRES   REMARKS
NWS GREEN BAY  CLOUDY    64  61  90 CALM      29.80F
APPLETON       MOCLDY    64  52  63 VRB5      29.81F
OSHKOSH        CLOUDY    67  57  70 CALM      29.81F
FOND DU LAC    CLOUDY    68  52  56 SW5       29.82F
$$

WIZ022-050-052-280400-
EAST CENTRAL WISCONSIN

CITY           SKY/WX    TMP DP  RH WIND       PRES   REMARKS
EPHRAIM        FAIR      59  53  80 S6        29.80F
WASHINGTON ISL MOCLDY    55  49  80 S8        29.80S
STURGEON BAY   CLOUDY    61  53  75 S8        29.81F
MANITOWOC      CLOUDY    61  53  75 S5        29.83F
SHEBOYGAN      CLOUDY    60  54  80 S5        29.83F
$$

LMZ563-521-522-541>543-280400-
LAKESHORE

STATION/POSITION TIME  TEMP    WIND        PRES    VSBY  WAVE
                       AIR SEA DIR/SP/G                  HT/PER
                 (UTC) (F)     (DEG/KT/KT) (MB)    (MI)  (FT/S)
SHEBOYGAN LKSHOR 0300   60     200/  7/  8 1009.9F
KEWAUNEE LKSHORE 0236   55     170/  4/  5 1009.5F
NORTHPORT PIER   0240   61     170/  7/ 11 1009.1F
N MID LAKE BUOY  0250   47 42  190/ 10/ 10 1010.6F         1
CHAMBERS ISLAND  0240   62     150/  4/  8 1008.8S
MENOMINEE LKSHOR 0248          210/  5/  9 1008.5S
$$




USA.gov is the U.S. government's official web portal to all federal, state and local government web resources and services.